Location: Unspecified
(0.0000°N, 0.0000°E)
Time: 13:46:06
(UTC+00:00)

N. Korean satellite - Pass Details

Date: 20 May 2019
Orbit: 457 x 507 km, 97.2° (Epoch: 23 August)

Event Time Altitude Azimuth Distance (km) Brightness Sun altitude
Rises 05:18:10 0° 26° (NNE) 2,477 10.9 -9.0°
Reaches altitude 10° 05:20:21 10° 37° (NE) 1,600 10.2 -8.5°
Maximum altitude 05:23:26 32° 101° (E) 816 8.4 -7.8°
Drops below altitude 10° 05:26:31 10° 165° (SSE) 1,597 9.1 -7.1°
Sets 05:28:41 0° 175° (S) 2,472 10.0 -6.5°
